sat.trackr.live / text

‹ back to catalog

STARLINK-31948

NORAD 59941 · 2024-106V

PAYLOAD ACTIVE UNKNOWN

§ Identity

Operator
Country
US
Launch date
2024-06-01
Launch site
AFETR
Launch vehicle
Mass (kg)
RCS (m²)

Purposes: comms

External: N2YO · Heavens-Above · Gunter

§ Orbital elements

Epoch: 2026-09-21T10:05:14.031456Z

Period
94.27 min
Inclination
42.9987°
Eccentricity
0.0000228
Mean motion
15.27558592 rev/d
Perigee alt
483.0 km
Apogee alt
483.3 km
Semi-major
6,861.3 km
B*
-4.2269e-5
RAAN
303.8828°
Arg perigee
252.2750°
Mean anomaly
107.8077°
Rev number
13,049

§ Raw data

STARLINK-319481 59941U 24106V   26264.42030129 -.00001424  00000+0 -42269-4 0  99912 59941  42.9987 303.8828 0000228 252.2750 107.8077 15.27558592130492

JSON: /api/v1/satellites/59941 · /tle

For live sub-satellite position, see the globe view (requires WebGL).

§ Visibility from observer

Set your observer location to see the next 7 days of passes ≥ 10°. The values pass through the URL so the page stays shareable.

No JS? Fill the form by hand. The geolocation button needs JavaScript.